This demonstration page uses our WeatherBlox Daily Observations layout. Learn more.

Left ArrowRight Arrow

Hourly Observations for July 9, 2019

Temp ( °F °C ) Dew Point ( °F °C ) Humidity (%) Winds ( mph kmh ) Pressure ( in mb ) Visibility ( mi km ) Precip ( " mm )
12:28 am 00:28 Cloudy with Strong Thunderstorms 64 18 64 18 100 100 SSE 5 7 29.86 1011 3 5 0.34 8.64
12:32 am 00:32 Cloudy with Nearby Thunderstorms 64 18 64 18 100 100 WSW 6 9 29.89 1012 3 5 0.39 9.91
12:56 am 00:56 Cloudy with Nearby Thunderstorms 65 18.3 64 17.8 97 97 NW 6 9 29.84 1011 9 14 0.57 14.48
1:07 am 01:07 Cloudy with Light Rain 64 18 64 18 100 100 N 10 17 29.77 1008 10 16 0.00 0.00
1:40 am 01:40 Cloudy with Nearby Thunderstorms 64 18 64 18 100 100 ENE 8 13 29.77 1008 10 16 0.00 0.00
1:56 am 01:56 Cloudy with Nearby Thunderstorms 65 18.3 64 17.8 97 97 SE 5 7 29.80 1009 9 14 0.09 2.29
2:12 am 02:12 Cloudy with Thunderstorms 64 18 64 18 100 100 S 8 13 29.82 1010 10 16 0.03 0.76
2:56 am 02:56 Cloudy with Light Rain 65 18.3 64 17.8 97 97 S 12 19 29.80 1009 10 16 0.10 2.54
3:21 am 03:21 Mostly Cloudy with Light Rain 64 18 64 18 100 100 SSE 15 24 29.78 1009 10 16 0.01 0.25
3:56 am 03:56 Mostly Clear 66 18.9 64 17.8 93 93 S 13 20 29.77 1008 10 16 0.01 0.25
4:26 am 04:26 Mostly Cloudy 66 19 64 18 94 94 SSW 8 13 29.75 1008 10 16 0.00 0.00
4:56 am 04:56 Cloudy 66 18.9 65 18.3 96 96 SW 13 20 29.80 1009 10 16 0.01 0.25
5:39 am 05:39 Partly Cloudy 66 19 64 18 94 94 W 5 7 29.80 1009 10 16 0.00 0.00
5:56 am 05:56 Clear 65 18.3 64 17.8 97 97 W 5 7 29.83 1010 10 16 0.00 0.00
6:56 am 06:56 Sunny 65 18.3 64 17.8 97 97 W 7 11 29.86 1011 10 16 0.00 0.00
7:56 am 07:56 Sunny 67 19.4 65 18.3 93 93 W 7 11 29.86 1011 10 16 0.00 0.00
8:56 am 08:56 Sunny 71 21.7 66 18.9 84 84 WSW 10 17 29.88 1012 10 16 0.00 0.00
9:56 am 09:56 Mostly Sunny 72 22.2 66 18.9 82 82 SW 15 24 29.87 1012 10 16 0.00 0.00
10:56 am 10:56 Sunny 76 24.4 67 19.4 74 74 SW 17 28 29.88 1012 10 16 0.00 0.00
11:56 am 11:56 Sunny 80 26.7 68 20 67 67 W 10 17 29.89 1012 10 16 0.00 0.00
12:56 pm 12:56 Sunny 82 27.8 68 20 63 63 WSW 13 20 29.88 1012 10 16 0.00 0.00
1:56 pm 13:56 Sunny 84 28.9 69 20.6 61 61 W 10 17 29.88 1012 10 16 0.00 0.00
2:56 pm 14:56 Sunny 85 29.4 68 20 57 57 WSW 8 13 29.88 1012 10 16 0.00 0.00
3:56 pm 15:56 Sunny 86 30 70 21.1 59 59 W 7 11 29.88 1012 10 16 0.00 0.00
4:56 pm 16:56 Sunny 87 30.6 68 20 53 53 NW 3 6 29.88 1012 10 16 0.00 0.00
5:56 pm 17:56 Sunny 88 31.1 64 17.8 45 45 WNW 7 11 29.88 1012 10 16 0.00 0.00
6:56 pm 18:56 Sunny 88 31.1 64 17.8 45 45 WNW 5 7 29.89 1012 10 16 0.00 0.00
7:56 pm 19:56 Sunny 84 28.9 70 21.1 63 63 S 6 9 29.90 1012 10 16 0.00 0.00
8:56 pm 20:56 Sunny with Light Rain 79 26.1 71 21.7 77 77 SSE 5 7 29.91 1013 10 16 0.00 0.03
9:56 pm 21:56 Clear 76 24.4 72 22.2 88 88 NE 3 6 29.93 1014 10 16 0.00 0.03
10:56 pm 22:56 Clear 75 23.9 71 21.7 88 88 N 5 7 29.96 1014 10 16 0.00 0.03
11:56 pm 23:56 Clear 75 23.9 69 20.6 82 82 N 8 13 29.97 1015 10 16 0.00 0.00

Powered by AerisWeather